Regional Weather Roundup
Issued by NWS

Home | Current Version | Previous Version | Text Only | Print | Product List | Glossary On
Versions: 1 2 3 4 5 6 7 8 9 10 11 12 13 14 15 16 17 18 19 20 21 22 23 24 25 26 27 28 29 30 31 32 33 34 35 36 37 38 39 40 41 42 43 44 45 46 47 48 49 50
512
ASUS44 KJAN 291503
RWRMS

MISSISSIPPI HOURLY WEATHER ROUNDUP
NATIONAL WEATHER SERVICE JACKSON MS
1000 AM CDT TUE JUL 29 2014

NOTE: "FAIR: INDICATES FEW OR NO CLOUDS BELOW 12,000 FEET WITH NO
SIGNIFICANT WEATHER AND/OR OBSTRUCTIONS TO VISIBILITY.

MSZ001>002-007>008-010>013-018>021-025>028-034>036-291600-
NORTHWEST MISSISSIPPI

CITY           SKY/WX    TMP DP  RH WIND       PRES   REMARKS
CLARKSDALE     FAIR      75  63  64 N10G17    30.14S
CLEVELAND      FAIR      77  66  70 NE12      30.12R
GREENWOOD      MOSUNNY   77  65  66 NE6       30.11S
GREENVILLE     MOSUNNY   78  67  68 NE9       30.11R
GRENADA        PTSUNNY   75  63  64 NE7       30.12S
OLIVE BRANCH   MOSUNNY   72  59  64 NE8       30.15R
OXFORD         FAIR      72  59  64 NE8       30.15R
TUNICA         SUNNY     73  57  56 NE12      30.15R
$$

MSZ003>006-009-014>017-022>024-029>033-037>039-291600-
NORTHEAST MISSISSIPPI

CITY           SKY/WX    TMP DP  RH WIND       PRES   REMARKS
BELMONT        FAIR      71  59  66 N9        30.11S
COLUMBUS AFB   SUNNY     76  62  62 N7        30.10S
CORINTH        FAIR      72  54  53 NE9       30.13R
GOLDN TRIANGLE PTSUNNY   75  64  69 NE8       30.11R
STARKVILLE     PTSUNNY   73  63  68 N5        30.11R
TUPELO         SUNNY     74  59  59 NE10      30.11S
$$

MSZ040-058-291600-
CENTRAL MISSISSIPPI

CITY           SKY/WX    TMP DP  RH WIND       PRES   REMARKS
JACKSON INTL   MOSUNNY   82  65  56 N8        30.10R
JACKSON HAWKNS SUNNY     82  63  52 NE5       30.10S
MERIDIAN KEY   SUNNY     81  62  52 N8        30.08S
MERIDIAN NAS   MOSUNNY   81  64  56 N8        30.08S
RAYMOND        FAIR      81  75  83 CALM      30.10S
VICKSBURG      SUNNY     82  68  62 VRB3      30.10S
$$

MSZ059>079-291600-
SOUTH MISSISSIPPI

CITY           SKY/WX    TMP DP  RH WIND       PRES   REMARKS
BROOKHAVEN     FAIR      79  66  65 NE6       30.12S
COLUMBIA       FAIR      81  66  61 VRB6      30.08R
HATTIESBURG    SUNNY     81  65  58 NE8       30.08S
MCCOMB         SUNNY     80  64  58 CALM      30.10S
NATCHEZ        SUNNY     79  66  65 N3        30.11S
PINE BELT      SUNNY     81  64  57 NE10      30.09S
$$

MSZ080>082-291600-
COASTAL MISSISSIPPI

CITY           SKY/WX    TMP DP  RH WIND       PRES   REMARKS
BAY ST LOUIS   MOSUNNY  N/A N/A N/A NE7       30.07R
BILOXI         PTSUNNY   82  67  60 NE10      30.06R
PASCAGOULA     MOSUNNY   82  67  60 N9        30.05S
GULFPORT       PTSUNNY   86  65  49 N7        30.05S
$$



USA.gov is the U.S. government's official web portal to all federal, state and local government web resources and services.